Estación de Curicó

Ultimos registro cada 15 minutos 55
Estación Fecha / Hora Temperatura Humedad Lluvia Velocidad Dirección Radiación Presion
55 Curicó 09-05-2026 13:30 16 59,8 0 1,3 197 503,1 990
54 Curicó 09-05-2026 13:15 15,3 60,3 0 1,3 208 515,6 989,9
53 Curicó 09-05-2026 13:00 14,9 61,8 0 1 191 519,4 990,2
52 Curicó 09-05-2026 12:45 14 66,1 0 1 202 525,6 990,3
51 Curicó 09-05-2026 12:30 13,6 68,8 0 1 218 525,6 990,6
50 Curicó 09-05-2026 12:15 13,2 70 0 1 216 525,6 990,8
49 Curicó 09-05-2026 12:00 12,9 71,9 0 1 237 519,4 990,9
48 Curicó 09-05-2026 11:45 11,9 71,7 0 1 212 511,9 991
47 Curicó 09-05-2026 11:30 11,9 74,5 0 0,7 234 500,6 990,8
46 Curicó 09-05-2026 11:15 11,6 77,2 0 0,7 188 485,6 990,6
45 Curicó 09-05-2026 11:00 11 79,7 0 0,7 184 466,9 990,9
44 Curicó 09-05-2026 10:45 10,3 82,8 0 0,7 170 450,6 991
43 Curicó 09-05-2026 10:30 9,6 85,1 0 0,7 139 446,9 991,4
42 Curicó 09-05-2026 10:15 10 87,3 0 0,7 132 395,6 991,3
41 Curicó 09-05-2026 10:00 7,4 90,1 0 0,3 202 196,9 992,2
40 Curicó 09-05-2026 09:45 7,3 90,6 0 0,3 233 135,6 992,4
39 Curicó 09-05-2026 09:30 6,9 90,8 0 0,3 254 100,6 992,5
38 Curicó 09-05-2026 09:15 7,3 90,2 0 0,7 223 81,9 992,4
37 Curicó 09-05-2026 09:00 8,4 91,2 0 1 161 340,6 992,5
36 Curicó 09-05-2026 08:45 7,6 92,9 0 1 180 205,6 992,6
35 Curicó 09-05-2026 08:30 6,7 94,6 0 0,7 183 166,9 992,6
34 Curicó 09-05-2026 08:15 5,9 94,7 0 0,7 212 30,6 992,4
33 Curicó 09-05-2026 08:00 6,3 94,6 0 0,7 215 11,9 992,6
32 Curicó 09-05-2026 07:45 6,4 94,9 0 0,3 216 9,4 992,7
31 Curicó 09-05-2026 07:30 6,3 94,9 0 0,7 216 1,9 992,7
30 Curicó 09-05-2026 07:15 6,1 94,5 0 0,7 227 0,6 992,6
29 Curicó 09-05-2026 07:00 6,5 94,1 0 0,7 211 0,6 992,6
28 Curicó 09-05-2026 06:45 6,8 93,8 0 1,3 212 0,6 992,7
27 Curicó 09-05-2026 06:30 7,3 93,6 0 1 236 0,6 992,9
26 Curicó 09-05-2026 06:15 7,5 93,5 0 1 234 0,6 992,7
25 Curicó 09-05-2026 06:00 7,7 93,3 0 1 225 0,6 992,8
24 Curicó 09-05-2026 05:45 8,2 93,2 0 1 223 0,6 992,7
23 Curicó 09-05-2026 05:30 8,4 93,2 0 1 220 0,6 992,7
22 Curicó 09-05-2026 05:15 8,5 93,2 0 1 216 0,6 992,7
21 Curicó 09-05-2026 05:00 8,5 93,5 0 1 219 0,6 992,7
20 Curicó 09-05-2026 04:45 8,7 93,7 0 1 220 0,6 992,5
19 Curicó 09-05-2026 04:30 8,8 94 0 1 204 0,6 992,7
18 Curicó 09-05-2026 04:15 8,8 94,6 0 1,3 213 0,6 992,8
17 Curicó 09-05-2026 04:00 8,8 95,3 0 1,3 215 0,6 992,9
16 Curicó 09-05-2026 03:45 8,8 95,6 0 1 218 0,6 993,1
15 Curicó 09-05-2026 03:30 8,8 95,8 0 1 225 0,6 993,1
14 Curicó 09-05-2026 03:15 8,9 95,7 0 1,3 225 0,6 993,1
13 Curicó 09-05-2026 03:00 9 95,3 0 0,7 225 0,6 993,3
12 Curicó 09-05-2026 02:45 9,1 95,1 0 1 227 0,6 993,2
11 Curicó 09-05-2026 02:30 9,3 94,7 0 1 233 0,6 993,3
10 Curicó 09-05-2026 02:15 9,5 94,5 0 1,3 227 0,6 993,5
9 Curicó 09-05-2026 02:00 9,7 94,4 0 1 225 0,6 993,5
8 Curicó 09-05-2026 01:45 9,8 94,3 0 1 223 0,6 993,5
7 Curicó 09-05-2026 01:30 9,8 94,2 0 1,3 222 0,6 993,5
6 Curicó 09-05-2026 01:15 10 93,9 0 1,3 225 0,6 993,6
5 Curicó 09-05-2026 01:00 10,1 93,6 0 1 234 0,6 993,5
4 Curicó 09-05-2026 00:45 10,1 93,7 0 1,3 227 0,6 993,5
3 Curicó 09-05-2026 00:30 10,3 93,6 0 1 222 0,6 993,4
2 Curicó 09-05-2026 00:15 10,3 93,4 0 1,3 226 0,6 993,4
1 Curicó 09-05-2026 00:00 10,4 93,3 0 1 225 0,6 993,4